Regional Weather Roundup
Issued by NWS Charleston, WV

Home | Current Version | Previous Version | Text Only | Print | Product List | Glossary On
Versions: 1 2 3 4 5 6 7 8 9 10 11 12 13 14 15 16 17 18 19 20 21 22 23 24 25 26 27 28 29 30 31 32 33 34 35 36 37 38 39 40 41 42 43 44 45 46 47 48 49 50
000
ASUS41 KRLX 261810
RWRRLX
West Virginia Regional Weather Roundup
National Weather Service Charleston WV
200 PM EDT SAT JUL 26 2014

Note: "fair" indicates few or no clouds below 12,000 feet with no
significant weather and/or obstructions to visibility.

WVZ003-261900-
Northern Panhandle of West Virginia

CITY           SKY/WX    TMP DP  RH WIND       PRES   REMARKS
WHEELING       MOSUNNY   81  61  50 SW6       29.97F
$$

WVZ009-261900-
Northwest West Virginia

CITY           SKY/WX    TMP DP  RH WIND       PRES   REMARKS
PARKERSBURG    MOSUNNY  N/A N/A N/A SW9       29.99F
$$

WVZ006-261900-
Western West Virginia

CITY           SKY/WX    TMP DP  RH WIND       PRES   REMARKS
HUNTINGTON     PTSUNNY   81  66  60 VRB7      29.99S
$$

WVZ015-261900-
West Central West Virginia

CITY           SKY/WX    TMP DP  RH WIND       PRES   REMARKS
CHARLESTON     MOSUNNY   82  62  50 W9        29.99F
$$

WVZ031-261900-
North Central West Virginia

CITY           SKY/WX    TMP DP  RH WIND       PRES   REMARKS
CLARKSBURG     MOSUNNY   81  61  50 VRB5      30.01F
MORGANTOWN     PTSUNNY   81  58  45 VRB6      30.01F
$$

WVZ035-042-045-261900-
South Central West Virginia

CITY           SKY/WX    TMP DP  RH WIND       PRES   REMARKS
BECKLEY        SUNNY     78  55  44 SW8       30.09F
BLUEFIELD      SUNNY     80  57  45 VRB6      30.12F
LEWISBURG      SUNNY     82  50  32 W6        30.07F
$$

WVZ047-261900-
Northern Mountains of West Virginia

CITY           SKY/WX    TMP DP  RH WIND       PRES   REMARKS
ELKINS         CLOUDY    78  57  48 W5        30.06S
$$

WVZ052-261900-
Eastern Panhandle of West Virginia

CITY           SKY/WX    TMP DP  RH WIND       PRES   REMARKS
MARTINSBURG    SUNNY     83  55  38 MISG      29.98F
PETERSBURG     SUNNY     85  52  32 NE3       29.98F
$$



USA.gov is the U.S. government's official web portal to all federal, state and local government web resources and services.